Вернуться в каталог

STARLINK-35222

АктивенСвязьVLEO
NORAD 65677·PAYLOAD·🇺🇸 United States

Запущен Sep 21, 2025 с Cape Canaveral Space Force Station

Loading…

Ближайшие Пролёты (ближайшие 24 часа)

TLE

СвежийSource: CelesTrak SupGP

Эпоха: Sep 14, 2026, 21:35 UTC

1 65677C 25212B   26257.89979167 -.00019996  00000+0 -59058-3 0  2573
2 65677  53.1580 184.0915 0001254 104.8350 156.1717 15.34411248    18

Отслеживайте STARLINK-35222 в реальном времени с AllMySat

Download on the App Store